Tracking 32938 objects as of 13-Jan-2026
HD Live streaming from Space Station
objects crossing your sky now

HULIANWANG DIGUI-108

Track HULIANWANG DIGUI-108 now!
10-day predictions


NORAD ID: 66918
Int'l Code: 2025-286D
Perigee: 946.6 km
Apogee: 947.1 km
Inclination: 50.0 °
Period: 103.8 minutes
Semi major axis: 7317 km
RCS: Unknown
Launch date: December 6, 2025
Source: People's Republic of China (PRC)
Launch site: Wenchang Satellite Launch Center (WSC)
Your satellite tracking list
Your tracking list is empty




NASA's NSSDC Master Catalog

Two Line Element Set (TLE):
1 66918U 25285D   26011.97452136 -.00000074  00000-0  60143-4 0  9999
2 66918  50.0128 354.9758 0000338 121.4420 238.6511 13.86841738  5142
Source of the keplerian elements: AFSPC